Check out our new BloomSky Weather System.

Active alerts


No alerts


Thunder radar  blitzortung!


Rain radar more information rain snow radar


Visit our other weather sites:

Template documentation
and downloads

And another site



Weather Underground History page Text

Daily Summary for August 16, 2017 Units:  English    Metric   Both
« Previous Day
Next Day »
Daily Weekly Monthly Yearly Custom
  High: Low: Average:
Temperature: TemperatureF °F 81.3 °F 87.9 °F
Dew Point: DewpointF °F 75.9 °F 78.3 °F
Humidity: Humidity % 54 % 74 %
Wind Speed: WindSpeedMPH mph 0.0 mph 4.5 mph
Wind Gust: WindSpeedGustMPH mph - -
Wind:- - SSE
Pressure: PressureIn in 29.89 in -
Precipitation: 0.00 in    
Historical Graphs
 
 
Tabular Data for August 16, 2017
Time Temperature Dew Point Pressure Wind Wind Speed Wind Gust Humidity Rainfall Rate (Hourly)
TemperatureF °F DewpointF °F PressureIn in Calm     Humidity % HourlyPrecipIn in
00:02 83.8 °F 78.4 °F 29.91 in SE 3.0 mph 5.0 mph 84 % 0.00 in
00:07 83.7 °F 78.3 °F 29.91 in South 2.0 mph 5.0 mph 84 % 0.00 in
00:12 83.7 °F 78.3 °F 29.91 in South 2.0 mph 6.0 mph 84 % 0.00 in
00:17 83.7 °F 78.3 °F 29.91 in SSE 3.0 mph 6.0 mph 84 % 0.00 in
00:22 83.7 °F 78.6 °F 29.91 in SE 2.0 mph 6.0 mph 85 % 0.00 in
00:27 83.5 °F 78.4 °F 29.91 in South 5.0 mph 6.0 mph 85 % 0.00 in
00:32 83.5 °F 78.4 °F 29.91 in SSE 4.0 mph 6.0 mph 85 % 0.00 in
00:37 83.5 °F 78.4 °F 29.90 in SSE 3.0 mph 6.0 mph 85 % 0.00 in
00:42 83.5 °F 78.4 °F 29.90 in SSW 1.0 mph 6.0 mph 85 % 0.00 in
00:47 83.1 °F 78.4 °F 29.90 in SE 4.0 mph 6.0 mph 86 % 0.00 in
00:52 83.1 °F 78.4 °F 29.90 in SSE 3.0 mph 5.0 mph 86 % 0.00 in
00:57 83.1 °F 78.4 °F 29.90 in SSE 2.0 mph 5.0 mph 86 % 0.00 in
01:02 83.1 °F 78.4 °F 29.90 in SE 3.0 mph 6.0 mph 86 % 0.00 in
01:07 83.1 °F 78.4 °F 29.90 in SE 4.0 mph 6.0 mph 86 % 0.00 in
01:12 83.1 °F 78.4 °F 29.90 in SSE 4.0 mph 8.0 mph 86 % 0.00 in
01:17 83.1 °F 78.8 °F 29.90 in SSE 3.0 mph 8.0 mph 87 % 0.00 in
01:22 83.1 °F 78.8 °F 29.90 in SE 4.0 mph 8.0 mph 87 % 0.00 in
01:27 82.9 °F 78.6 °F 29.90 in SE 5.0 mph 8.0 mph 87 % 0.00 in
01:32 82.9 °F 78.6 °F 29.90 in South 4.0 mph 8.0 mph 87 % 0.00 in
01:37 82.9 °F 78.6 °F 29.90 in SSE 6.0 mph 8.0 mph 87 % 0.00 in
01:42 82.9 °F 78.6 °F 29.90 in SSE 4.0 mph 8.0 mph 87 % 0.00 in
01:47 83.1 °F 78.8 °F 29.89 in South 3.0 mph 8.0 mph 87 % 0.00 in
01:52 83.1 °F 78.8 °F 29.90 in South 3.0 mph 8.0 mph 87 % 0.00 in
01:57 83.1 °F 78.8 °F 29.90 in SSE 2.0 mph 9.0 mph 87 % 0.00 in
02:02 83.1 °F 78.8 °F 29.89 in SSE 4.0 mph 9.0 mph 87 % 0.00 in
02:07 83.1 °F 78.8 °F 29.89 in SSE 3.0 mph 10.0 mph 87 % 0.00 in
02:12 83.1 °F 78.8 °F 29.89 in SSE 5.0 mph 10.0 mph 87 % 0.00 in
02:17 83.1 °F 78.8 °F 29.89 in South 5.0 mph 10.0 mph 87 % 0.00 in
02:22 82.9 °F 78.6 °F 29.90 in SE 2.0 mph 9.0 mph 87 % 0.00 in
02:27 82.9 °F 78.6 °F 29.90 in SE 4.0 mph 8.0 mph 87 % 0.00 in
02:32 82.9 °F 78.6 °F 29.90 in SSW 5.0 mph 8.0 mph 87 % 0.00 in
02:37 82.9 °F 78.6 °F 29.90 in SE 2.0 mph 10.0 mph 87 % 0.00 in
02:42 82.9 °F 78.6 °F 29.90 in SE 3.0 mph 10.0 mph 87 % 0.00 in
02:47 82.9 °F 78.6 °F 29.90 in SSE 4.0 mph 10.0 mph 87 % 0.00 in
02:52 82.8 °F 78.4 °F 29.89 in SSW 3.0 mph 10.0 mph 87 % 0.00 in
02:57 82.8 °F 78.4 °F 29.89 in SSE 2.0 mph 10.0 mph 87 % 0.00 in
03:02 82.8 °F 78.4 °F 29.90 in SSE 4.0 mph 10.0 mph 87 % 0.00 in
03:07 82.8 °F 78.8 °F 29.90 in South 2.0 mph 9.0 mph 88 % 0.00 in
03:12 82.8 °F 78.8 °F 29.90 in South 2.0 mph 8.0 mph 88 % 0.00 in
03:17 82.6 °F 78.6 °F 29.90 in South 3.0 mph 6.0 mph 88 % 0.00 in
03:22 82.6 °F 78.6 °F 29.90 in SSE 4.0 mph 6.0 mph 88 % 0.00 in
03:27 82.6 °F 78.6 °F 29.90 in South 2.0 mph 8.0 mph 88 % 0.00 in
03:32 82.6 °F 78.6 °F 29.90 in South 5.0 mph 8.0 mph 88 % 0.00 in
03:37 82.6 °F 78.6 °F 29.90 in SSE 2.0 mph 8.0 mph 88 % 0.00 in
03:42 82.6 °F 78.6 °F 29.90 in SSE 3.0 mph 8.0 mph 88 % 0.00 in
03:48 82.6 °F 78.6 °F 29.90 in SSE 1.0 mph 8.0 mph 88 % 0.00 in
03:53 82.6 °F 78.6 °F 29.90 in SE 3.0 mph 8.0 mph 88 % 0.00 in
03:58 82.6 °F 79.0 °F 29.90 in SSW 2.0 mph 7.0 mph 89 % 0.00 in
04:58 81.9 °F 78.6 °F 29.90 in SSW 2.0 mph 5.0 mph 90 % 0.00 in
04:59 81.9 °F 78.6 °F 29.91 in SSW 3.0 mph 6.0 mph 90 % 0.00 in
05:03 81.9 °F 78.6 °F 29.90 in SSE 2.0 mph 6.0 mph 90 % 0.00 in
05:08 81.9 °F 78.6 °F 29.90 in SSW 2.0 mph 5.0 mph 90 % 0.00 in
05:13 81.9 °F 78.6 °F 29.90 in SSE 2.0 mph 6.0 mph 90 % 0.00 in
05:18 81.9 °F 78.6 °F 29.90 in SSE 2.0 mph 6.0 mph 90 % 0.00 in
05:23 81.9 °F 78.6 °F 29.90 in SSE 1.0 mph 6.0 mph 90 % 0.00 in
05:28 81.9 °F 78.6 °F 29.90 in SSE 2.0 mph 6.0 mph 90 % 0.00 in
05:33 81.9 °F 78.6 °F 29.91 in SSE 1.0 mph 4.0 mph 90 % 0.00 in
05:38 81.7 °F 78.4 °F 29.91 in SSW 1.0 mph 4.0 mph 90 % 0.00 in
05:44 81.7 °F 78.4 °F 29.91 in SE 1.0 mph 4.0 mph 90 % 0.00 in
05:49 81.7 °F 78.8 °F 29.91 in Calm   3.0 mph 91 % 0.00 in
05:54 81.5 °F 78.6 °F 29.91 in Calm   2.0 mph 91 % 0.00 in
05:59 81.3 °F 78.4 °F 29.91 in Calm   2.0 mph 91 % 0.00 in
06:04 81.3 °F 78.4 °F 29.91 in Calm   2.0 mph 91 % 0.00 in
06:09 81.3 °F 78.4 °F 29.92 in Calm   1.0 mph 91 % 0.00 in
06:14 81.3 °F 78.4 °F 29.92 in East 1.0 mph 1.0 mph 91 % 0.00 in
06:19 81.3 °F 78.4 °F 29.92 in Calm   2.0 mph 91 % 0.00 in
06:24 81.3 °F 78.4 °F 29.93 in SE 1.0 mph 2.0 mph 91 % 0.00 in
06:29 81.3 °F 78.4 °F 29.93 in SSE 2.0 mph 2.0 mph 91 % 0.00 in
06:34 81.3 °F 78.8 °F 29.93 in SSE 1.0 mph 2.0 mph 92 % 0.00 in
06:39 81.3 °F 78.4 °F 29.93 in SSE 1.0 mph 3.0 mph 91 % 0.00 in
06:44 81.5 °F 78.6 °F 29.93 in South 1.0 mph 3.0 mph 91 % 0.00 in
06:49 81.7 °F 78.8 °F 29.93 in SSW 1.0 mph 4.0 mph 91 % 0.00 in
06:54 81.7 °F 78.8 °F 29.94 in SE 1.0 mph 4.0 mph 91 % 0.00 in
06:59 81.7 °F 78.8 °F 29.94 in South 1.0 mph 4.0 mph 91 % 0.00 in
07:04 81.5 °F 78.6 °F 29.94 in Calm   2.0 mph 91 % 0.00 in
07:09 81.5 °F 78.6 °F 29.94 in ESE 2.0 mph 2.0 mph 91 % 0.00 in
07:14 81.7 °F 78.8 °F 29.94 in Calm   2.0 mph 91 % 0.00 in
07:19 81.7 °F 78.8 °F 29.94 in SE 1.0 mph 2.0 mph 91 % 0.00 in
07:24 81.9 °F 79.0 °F 29.94 in SE 3.0 mph 3.0 mph 91 % 0.00 in
07:29 82.2 °F 79.3 °F 29.94 in ESE 3.0 mph 5.0 mph 91 % 0.00 in
07:34 82.2 °F 79.3 °F 29.94 in ESE 2.0 mph 5.0 mph 91 % 0.00 in
07:39 82.4 °F 79.5 °F 29.93 in SSE 3.0 mph 5.0 mph 91 % 0.00 in
07:44 82.6 °F 80.1 °F 29.93 in ESE 4.0 mph 7.0 mph 92 % 0.00 in
07:49 82.8 °F 79.9 °F 29.93 in ESE 4.0 mph 7.0 mph 91 % 0.00 in
07:55 82.9 °F 80.1 °F 29.93 in SE 6.0 mph 7.0 mph 91 % 0.00 in
07:57 83.1 °F 80.2 °F 29.93 in ESE 2.0 mph 6.0 mph 91 % 0.00 in
08:02 83.5 °F 80.2 °F 29.94 in SSE 4.0 mph 6.0 mph 90 % 0.00 in
08:07 83.7 °F 80.4 °F 29.94 in South 2.0 mph 6.0 mph 90 % 0.00 in
08:12 83.8 °F 80.2 °F 29.94 in SSW 3.0 mph 6.0 mph 89 % 0.00 in
08:17 84.4 °F 80.8 °F 29.94 in East 4.0 mph 6.0 mph 89 % 0.00 in
08:22 84.7 °F 80.8 °F 29.94 in SE 4.0 mph 7.0 mph 88 % 0.00 in
08:27 84.9 °F 80.6 °F 29.94 in SSE 4.0 mph 7.0 mph 87 % 0.00 in
08:32 85.3 °F 80.6 °F 29.94 in SSW 5.0 mph 9.0 mph 86 % 0.00 in
08:37 85.5 °F 80.8 °F 29.94 in SE 5.0 mph 11.0 mph 86 % 0.00 in
08:42 85.6 °F 81.0 °F 29.94 in SSW 5.0 mph 11.0 mph 86 % 0.00 in
08:47 85.8 °F 80.8 °F 29.95 in SE 4.0 mph 11.0 mph 85 % 0.00 in
08:52 86.2 °F 80.8 °F 29.95 in SSW 1.0 mph 9.0 mph 84 % 0.00 in
08:57 86.4 °F 80.2 °F 29.95 in SE 7.0 mph 13.0 mph 82 % 0.00 in
09:02 86.5 °F 80.4 °F 29.95 in South 7.0 mph 13.0 mph 82 % 0.00 in
09:07 86.4 °F 79.9 °F 29.95 in East 4.0 mph 13.0 mph 81 % 0.00 in
09:12 86.5 °F 80.1 °F 29.95 in SSE 8.0 mph 10.0 mph 81 % 0.00 in
09:17 87.3 °F 80.2 °F 29.95 in SSE 6.0 mph 10.0 mph 80 % 0.00 in
09:22 87.8 °F 79.7 °F 29.96 in SSE 6.0 mph 10.0 mph 77 % 0.00 in
09:26 88.0 °F 79.9 °F 29.96 in WSW 5.0 mph 10.0 mph 77 % 0.00 in
09:31 88.0 °F 79.5 °F 29.96 in SSE 4.0 mph 10.0 mph 76 % 0.00 in
09:36 87.8 °F 78.8 °F 29.96 in SE 5.0 mph 12.0 mph 75 % 0.00 in
09:41 88.0 °F 79.0 °F 29.96 in East 8.0 mph 12.0 mph 75 % 0.00 in
09:46 88.5 °F 79.5 °F 29.96 in SSE 5.0 mph 12.0 mph 75 % 0.00 in
09:51 88.5 °F 79.2 °F 29.96 in SSE 8.0 mph 12.0 mph 74 % 0.00 in
09:56 88.9 °F 79.2 °F 29.96 in SSW 11.0 mph 11.0 mph 73 % 0.00 in
10:01 88.5 °F 78.3 °F 29.96 in SSW 4.0 mph 15.0 mph 72 % 0.00 in
10:06 88.2 °F 78.8 °F 29.96 in South 3.0 mph 15.0 mph 74 % 0.00 in
10:11 88.5 °F 79.2 °F 29.96 in SSE 5.0 mph 15.0 mph 74 % 0.00 in
10:16 88.3 °F 78.6 °F 29.96 in SSW 9.0 mph 11.0 mph 73 % 0.00 in
10:21 88.2 °F 78.8 °F 29.96 in SSE 3.0 mph 9.0 mph 74 % 0.00 in
10:26 88.2 °F 78.8 °F 29.96 in SSE 5.0 mph 11.0 mph 74 % 0.00 in
10:31 88.0 °F 78.6 °F 29.96 in ESE 9.0 mph 11.0 mph 74 % 0.00 in
10:36 88.3 °F 79.3 °F 29.96 in SE 10.0 mph 11.0 mph 75 % 0.00 in
10:41 89.4 °F 80.4 °F 29.96 in SW 3.0 mph 10.0 mph 75 % 0.00 in
10:46 90.5 °F 80.2 °F 29.97 in SSE 2.0 mph 10.0 mph 72 % 0.00 in
10:51 90.7 °F 80.4 °F 29.96 in SW 3.0 mph 10.0 mph 72 % 0.00 in
10:56 90.7 °F 80.8 °F 29.97 in SSE 6.0 mph 8.0 mph 73 % 0.00 in
11:01 90.9 °F 80.6 °F 29.97 in SE 6.0 mph 9.0 mph 72 % 0.00 in
11:06 91.0 °F 80.2 °F 29.97 in SE 7.0 mph 9.0 mph 71 % 0.00 in
11:11 90.9 °F 79.3 °F 29.97 in South 5.0 mph 11.0 mph 69 % 0.00 in
11:16 90.7 °F 79.5 °F 29.97 in SE 7.0 mph 11.0 mph 70 % 0.00 in
11:21 90.9 °F 78.4 °F 29.97 in ESE 9.0 mph 14.0 mph 67 % 0.00 in
11:26 90.7 °F 78.6 °F 29.97 in South 4.0 mph 14.0 mph 68 % 0.00 in
11:31 91.2 °F 78.8 °F 29.97 in ESE 6.0 mph 14.0 mph 67 % 0.00 in
11:37 91.6 °F 78.1 °F 29.97 in South 4.0 mph 12.0 mph 65 % 0.00 in
11:42 91.0 °F 78.6 °F 29.97 in ESE 10.0 mph 13.0 mph 67 % 0.00 in
11:47 91.6 °F 78.6 °F 29.97 in SSE 8.0 mph 15.0 mph 66 % 0.00 in
11:52 91.9 °F 79.0 °F 29.97 in SW 5.0 mph 15.0 mph 66 % 0.00 in
11:57 92.5 °F 79.0 °F 29.97 in SE 5.0 mph 15.0 mph 65 % 0.00 in
12:02 92.7 °F 78.3 °F 29.97 in ESE 14.0 mph 14.0 mph 63 % 0.00 in
12:07 92.5 °F 78.1 °F 29.97 in ESE 6.0 mph 15.0 mph 63 % 0.00 in
12:12 93.0 °F 79.0 °F 29.96 in SSE 7.0 mph 15.0 mph 64 % 0.00 in
12:17 93.0 °F 79.5 °F 29.96 in SSE 11.0 mph 15.0 mph 65 % 0.00 in
12:22 93.4 °F 79.3 °F 29.96 in SSE 4.0 mph 19.0 mph 64 % 0.00 in
12:27 93.4 °F 79.3 °F 29.96 in SSW 2.0 mph 19.0 mph 64 % 0.00 in
12:32 93.7 °F 78.3 °F 29.96 in SSE 6.0 mph 19.0 mph 61 % 0.00 in
12:37 93.4 °F 78.8 °F 29.96 in South 6.0 mph 14.0 mph 63 % 0.00 in
12:42 93.6 °F 79.0 °F 29.96 in SSW 4.0 mph 14.0 mph 63 % 0.00 in
12:47 93.6 °F 78.1 °F 29.96 in SSE 6.0 mph 14.0 mph 61 % 0.00 in
12:52 93.6 °F 78.6 °F 29.96 in SSW 5.0 mph 11.0 mph 62 % 0.00 in
12:57 93.6 °F 78.1 °F 29.96 in SE 7.0 mph 11.0 mph 61 % 0.00 in
13:02 93.4 °F 77.9 °F 29.95 in SE 3.0 mph 11.0 mph 61 % 0.00 in
13:07 93.4 °F 79.3 °F 29.95 in South 5.0 mph 10.0 mph 64 % 0.00 in
13:12 93.6 °F 78.6 °F 29.95 in SSW 2.0 mph 10.0 mph 62 % 0.00 in
13:17 94.1 °F 80.1 °F 29.94 in SSW 3.0 mph 10.0 mph 64 % 0.00 in
13:22 95.0 °F 78.4 °F 29.94 in SSE 7.0 mph 10.0 mph 59 % 0.00 in
13:27 95.0 °F 79.0 °F 29.94 in SE 4.0 mph 11.0 mph 60 % 0.00 in
13:32 94.8 °F 78.3 °F 29.94 in SSE 4.0 mph 11.0 mph 59 % 0.00 in
13:37 94.6 °F 78.6 °F 29.94 in South 5.0 mph 11.0 mph 60 % 0.00 in
13:42 94.3 °F 77.7 °F 29.94 in SE 3.0 mph 10.0 mph 59 % 0.00 in
13:47 94.3 °F 78.8 °F 29.94 in Calm   10.0 mph 61 % 0.00 in
13:52 94.8 °F 78.3 °F 29.94 in SW 4.0 mph 10.0 mph 59 % 0.00 in
13:57 94.6 °F 78.1 °F 29.94 in SSW 6.0 mph 10.0 mph 59 % 0.00 in
14:02 94.6 °F 79.2 °F 29.94 in SE 6.0 mph 11.0 mph 61 % 0.00 in
14:07 95.2 °F 78.1 °F 29.93 in ESE 7.0 mph 11.0 mph 58 % 0.00 in
14:12 95.4 °F 78.3 °F 29.93 in SE 3.0 mph 13.0 mph 58 % 0.00 in
14:17 95.7 °F 79.2 °F 29.93 in NW 1.0 mph 13.0 mph 59 % 0.00 in
14:22 95.7 °F 78.1 °F 29.93 in SE 6.0 mph 13.0 mph 57 % 0.00 in
14:27 95.7 °F 78.1 °F 29.92 in SE 6.0 mph 13.0 mph 57 % 0.00 in
14:32 95.9 °F 78.3 °F 29.92 in SSE 4.0 mph 13.0 mph 57 % 0.00 in
14:37 95.7 °F 77.5 °F 29.91 in SSE 6.0 mph 11.0 mph 56 % 0.00 in
14:42 95.4 °F 77.2 °F 29.91 in SE 5.0 mph 11.0 mph 56 % 0.00 in
14:47 95.5 °F 77.9 °F 29.91 in South 3.0 mph 11.0 mph 57 % 0.00 in
14:52 96.1 °F 77.9 °F 29.91 in SSW 7.0 mph 11.0 mph 56 % 0.00 in
14:57 95.5 °F 77.4 °F 29.91 in SE 7.0 mph 12.0 mph 56 % 0.00 in
15:02 95.5 °F 78.4 °F 29.91 in SSW 7.0 mph 12.0 mph 58 % 0.00 in
15:07 95.7 °F 78.1 °F 29.91 in East 8.0 mph 12.0 mph 57 % 0.00 in
15:12 95.9 °F 78.8 °F 29.91 in SW 2.0 mph 13.0 mph 58 % 0.00 in
15:17 96.4 °F 79.2 °F 29.91 in SE 3.0 mph 13.0 mph 58 % 0.00 in
15:22 96.6 °F 78.8 °F 29.91 in South 7.0 mph 13.0 mph 57 % 0.00 in
15:27 96.6 °F 78.3 °F 29.91 in SSE 5.0 mph 12.0 mph 56 % 0.00 in
15:32 96.4 °F 78.6 °F 29.91 in SE 7.0 mph 12.0 mph 57 % 0.00 in
15:37 96.4 °F 78.1 °F 29.90 in East 7.0 mph 12.0 mph 56 % 0.00 in
15:42 96.3 °F 78.1 °F 29.90 in South 6.0 mph 12.0 mph 56 % 0.00 in
15:47 96.6 °F 79.3 °F 29.90 in SE 5.0 mph 12.0 mph 58 % 0.00 in
15:52 96.8 °F 77.9 °F 29.90 in SE 5.0 mph 14.0 mph 55 % 0.00 in
15:57 96.6 °F 78.3 °F 29.90 in SSE 6.0 mph 14.0 mph 56 % 0.00 in
16:02 96.3 °F 78.6 °F 29.89 in SSW 4.0 mph 14.0 mph 57 % 0.00 in
16:07 96.1 °F 78.4 °F 29.90 in South 8.0 mph 12.0 mph 57 % 0.00 in
16:12 96.3 °F 79.0 °F 29.90 in South 6.0 mph 12.0 mph 58 % 0.00 in
16:17 96.3 °F 78.6 °F 29.90 in SSW 6.0 mph 11.0 mph 57 % 0.00 in
16:22 95.7 °F 78.6 °F 29.90 in SSW 5.0 mph 12.0 mph 58 % 0.00 in
16:27 96.1 °F 78.4 °F 29.89 in South 3.0 mph 12.0 mph 57 % 0.00 in
16:32 96.1 °F 76.8 °F 29.89 in ESE 7.0 mph 12.0 mph 54 % 0.00 in
16:37 95.9 °F 78.3 °F 29.89 in South 4.0 mph 11.0 mph 57 % 0.00 in
16:42 95.7 °F 77.5 °F 29.89 in South 4.0 mph 11.0 mph 56 % 0.00 in
16:47 95.4 °F 77.2 °F 29.89 in South 6.0 mph 11.0 mph 56 % 0.00 in
16:52 95.2 °F 77.5 °F 29.89 in ESE 6.0 mph 14.0 mph 57 % 0.00 in
16:57 94.8 °F 77.2 °F 29.89 in SSE 5.0 mph 14.0 mph 57 % 0.00 in
17:02 94.5 °F 76.8 °F 29.89 in SE 8.0 mph 14.0 mph 57 % 0.00 in
17:07 94.3 °F 77.2 °F 29.89 in SE 10.0 mph 12.0 mph 58 % 0.00 in
17:12 93.9 °F 77.4 °F 29.90 in SSE 10.0 mph 12.0 mph 59 % 0.00 in
17:17 93.9 °F 77.4 °F 29.90 in SSE 9.0 mph 13.0 mph 59 % 0.00 in
17:22 93.9 °F 77.4 °F 29.90 in SSW 5.0 mph 13.0 mph 59 % 0.00 in
17:27 93.9 °F 77.4 °F 29.90 in SSE 4.0 mph 13.0 mph 59 % 0.00 in
17:32 93.9 °F 76.8 °F 29.90 in SSE 7.0 mph 13.0 mph 58 % 0.00 in
17:37 93.9 °F 76.8 °F 29.89 in South 5.0 mph 13.0 mph 58 % 0.00 in
17:42 93.7 °F 76.6 °F 29.89 in South 9.0 mph 14.0 mph 58 % 0.00 in
17:48 93.6 °F 77.0 °F 29.90 in SSW 4.0 mph 14.0 mph 59 % 0.00 in
17:52 93.6 °F 77.5 °F 29.90 in SE 5.0 mph 14.0 mph 60 % 0.00 in
17:57 93.6 °F 77.5 °F 29.90 in South 6.0 mph 13.0 mph 60 % 0.00 in
18:03 93.6 °F 77.5 °F 29.90 in SSE 9.0 mph 13.0 mph 60 % 0.00 in
18:08 93.6 °F 77.5 °F 29.90 in SSE 7.0 mph 13.0 mph 60 % 0.00 in
18:13 93.4 °F 77.4 °F 29.90 in South 6.0 mph 13.0 mph 60 % 0.00 in
18:18 93.4 °F 77.4 °F 29.90 in ESE 14.0 mph 14.0 mph 60 % 0.00 in
18:19 93.4 °F 77.4 °F 29.90 in SSW 4.0 mph 13.0 mph 60 % 0.00 in
18:24 93.4 °F 77.4 °F 29.90 in SSE 5.0 mph 14.0 mph 60 % 0.00 in
18:29 93.0 °F 77.0 °F 29.90 in SSW 7.0 mph 14.0 mph 60 % 0.00 in
18:34 92.7 °F 76.8 °F 29.90 in South 6.0 mph 14.0 mph 60 % 0.00 in
18:39 92.5 °F 76.6 °F 29.90 in South 4.0 mph 11.0 mph 60 % 0.00 in
18:44 92.1 °F 76.6 °F 29.90 in South 4.0 mph 11.0 mph 61 % 0.00 in
18:49 92.1 °F 76.6 °F 29.90 in SSE 5.0 mph 10.0 mph 61 % 0.00 in
18:54 92.5 °F 77.0 °F 29.90 in SSE 3.0 mph 10.0 mph 61 % 0.00 in
18:59 92.5 °F 77.0 °F 29.90 in WSW 3.0 mph 12.0 mph 61 % 0.00 in
19:04 92.5 °F 77.0 °F 29.90 in SE 7.0 mph 12.0 mph 61 % 0.00 in
19:10 92.3 °F 77.9 °F 29.90 in SSW 5.0 mph 12.0 mph 63 % 0.00 in
19:15 91.9 °F 77.5 °F 29.90 in South 7.0 mph 13.0 mph 63 % 0.00 in
19:20 91.8 °F 77.9 °F 29.90 in SSE 11.0 mph 13.0 mph 64 % 0.00 in
19:25 91.2 °F 77.4 °F 29.90 in South 4.0 mph 13.0 mph 64 % 0.00 in
19:30 90.9 °F 77.5 °F 29.90 in SSE 5.0 mph 13.0 mph 65 % 0.00 in
19:35 90.5 °F 77.2 °F 29.91 in SSE 6.0 mph 13.0 mph 65 % 0.00 in
19:40 90.3 °F 77.0 °F 29.91 in SSE 7.0 mph 11.0 mph 65 % 0.00 in
19:45 90.0 °F 76.1 °F 29.91 in SSE 8.0 mph 11.0 mph 64 % 0.00 in
19:50 89.8 °F 75.9 °F 29.91 in SSE 6.0 mph 13.0 mph 64 % 0.00 in
19:55 89.8 °F 76.5 °F 29.91 in SE 3.0 mph 13.0 mph 65 % 0.00 in
20:00 89.4 °F 76.1 °F 29.91 in SSW 6.0 mph 13.0 mph 65 % 0.00 in
20:05 89.2 °F 75.9 °F 29.91 in South 4.0 mph 13.0 mph 65 % 0.00 in
20:10 89.2 °F 76.5 °F 29.91 in SSE 7.0 mph 12.0 mph 66 % 0.00 in
20:15 89.1 °F 76.3 °F 29.91 in SSE 4.0 mph 12.0 mph 66 % 0.00 in
20:20 88.9 °F 77.0 °F 29.91 in SSE 2.0 mph 11.0 mph 68 % 0.00 in
20:25 88.7 °F 76.8 °F 29.92 in ESE 6.0 mph 11.0 mph 68 % 0.00 in
20:30 88.5 °F 77.5 °F 29.92 in SE 8.0 mph 15.0 mph 70 % 0.00 in
20:35 88.3 °F 77.7 °F 29.92 in SE 8.0 mph 15.0 mph 71 % 0.00 in
20:40 88.2 °F 77.5 °F 29.92 in SE 7.0 mph 15.0 mph 71 % 0.00 in
20:45 88.0 °F 77.9 °F 29.92 in ESE 9.0 mph 12.0 mph 72 % 0.00 in
20:50 87.8 °F 77.7 °F 29.93 in SE 6.0 mph 12.0 mph 72 % 0.00 in
20:55 87.6 °F 77.9 °F 29.93 in SW 4.0 mph 12.0 mph 73 % 0.00 in
21:00 87.4 °F 77.7 °F 29.93 in SSE 6.0 mph 12.0 mph 73 % 0.00 in
21:05 87.3 °F 77.9 °F 29.93 in SE 4.0 mph 11.0 mph 74 % 0.00 in
21:10 87.3 °F 78.4 °F 29.93 in ESE 7.0 mph 13.0 mph 75 % 0.00 in
21:15 87.1 °F 78.3 °F 29.94 in ESE 6.0 mph 14.0 mph 75 % 0.00 in
21:20 86.9 °F 78.4 °F 29.94 in SSE 8.0 mph 14.0 mph 76 % 0.00 in
21:25 86.7 °F 78.3 °F 29.94 in SE 7.0 mph 14.0 mph 76 % 0.00 in
21:30 86.5 °F 78.4 °F 29.94 in SSE 3.0 mph 11.0 mph 77 % 0.00 in
21:36 86.5 °F 78.4 °F 29.94 in SSE 6.0 mph 11.0 mph 77 % 0.00 in
21:41 86.4 °F 78.6 °F 29.94 in SSE 4.0 mph 11.0 mph 78 % 0.00 in
21:46 86.2 °F 78.4 °F 29.95 in SSE 9.0 mph 14.0 mph 78 % 0.00 in
21:51 86.2 °F 78.4 °F 29.95 in SE 7.0 mph 14.0 mph 78 % 0.00 in
21:56 86.2 °F 79.0 °F 29.95 in SSW 4.0 mph 14.0 mph 79 % 0.00 in
22:01 86.2 °F 79.0 °F 29.95 in SSE 2.0 mph 12.0 mph 79 % 0.00 in
22:06 86.0 °F 78.8 °F 29.95 in SSE 4.0 mph 12.0 mph 79 % 0.00 in
22:11 86.0 °F 79.2 °F 29.95 in SSE 9.0 mph 11.0 mph 80 % 0.00 in
22:16 86.0 °F 79.2 °F 29.95 in SE 4.0 mph 11.0 mph 80 % 0.00 in
22:21 85.8 °F 79.0 °F 29.95 in SSE 5.0 mph 11.0 mph 80 % 0.00 in
22:22 85.8 °F 79.0 °F 29.95 in SE 4.0 mph 11.0 mph 80 % 0.00 in
22:27 85.8 °F 79.3 °F 29.95 in East 3.0 mph 11.0 mph 81 % 0.00 in
22:28 85.8 °F 79.3 °F 29.95 in SE 4.0 mph 11.0 mph 81 % 0.00 in
22:32 85.8 °F 79.3 °F 29.95 in SSE 3.0 mph 11.0 mph 81 % 0.00 in
22:37 85.8 °F 79.3 °F 29.95 in SE 5.0 mph 11.0 mph 81 % 0.00 in
22:42 85.8 °F 79.3 °F 29.95 in SSE 4.0 mph 11.0 mph 81 % 0.00 in
22:47 85.6 °F 79.5 °F 29.95 in SSE 3.0 mph 11.0 mph 82 % 0.00 in
22:52 85.6 °F 79.5 °F 29.96 in SSE 3.0 mph 9.0 mph 82 % 0.00 in
22:57 85.5 °F 79.3 °F 29.95 in SSE 6.0 mph 9.0 mph 82 % 0.00 in
23:07 85.5 °F 79.7 °F 29.95 in SE 3.0 mph 9.0 mph 83 % 0.00 in
23:12 85.5 °F 79.7 °F 29.95 in SE 9.0 mph 9.0 mph 83 % 0.00 in
23:17 85.5 °F 79.7 °F 29.95 in SE 3.0 mph 9.0 mph 83 % 0.00 in
23:23 85.5 °F 79.7 °F 29.95 in South 2.0 mph 9.0 mph 83 % 0.00 in
23:28 85.3 °F 79.5 °F 29.95 in ESE 4.0 mph 9.0 mph 83 % 0.00 in
23:33 85.3 °F 79.9 °F 29.95 in SSE 4.0 mph 9.0 mph 84 % 0.00 in
23:38 85.1 °F 79.7 °F 29.95 in South 3.0 mph 10.0 mph 84 % 0.00 in
23:43 85.3 °F 79.9 °F 29.95 in SSW 3.0 mph 10.0 mph 84 % 0.00 in
23:48 85.3 °F 79.9 °F 29.96 in SSW 8.0 mph 10.0 mph 84 % 0.00 in
23:53 85.1 °F 79.7 °F 29.95 in SSE 5.0 mph 12.0 mph 84 % 0.00 in
23:58 85.1 °F 80.1 °F 29.95 in SSE 5.0 mph 12.0 mph 85 % 0.00 in
Spring, Texas: Villages of Bridgestone
Compliments of Weather Underground - 2.75 mb

Script developed by  Jim McMurry - jmcmurry@mwt.net Adapted for the template by  Wim van der Kuil - Leuven-Template.eu

You find our weather info also at:

UK Metoffice

WeatherCloud

Weather Underground

Mid-South Weather Network

AWEKAS

Citizen Weather Observer Program (CWOP)

HAMweather, WeatherForYou, PWS Weather

Equipment we use:

Weather-station
Davis Vantage Vue

Weather-program
Meteohub

Weather-server
Debian 7.9 x86 (Guest)

Provider
DreamHost

Davis Vantage Vue

Meteohub

Debian 7.9 x86 (Guest)

DreamHost